Tracking 17921 objects as of 16-January-2017
HD Live streaming from Space Station
objects crossing your sky now

NAVSTAR 36 (USA 100)

Track NAVSTAR 36 (USA 100) now!
NAVSTAR 36 (USA 100) is classified as:


NORAD ID: 23027
Int'l Code: 1994-016A
Perigee: 19,932.5 km
Apogee: 20,546.0 km
Inclination: 54.7 °
Period: 720.0 minutes
Semi major axis: 26610 km
RCS: 2.0263 m2 (large)
Launch date: March 10, 1994
Source: United States (US)
Launch site: AIR FORCE EASTERN TEST RANGE (AFETR)
PRN:
Your satellite tracking list
Your tracking list is empty





NASA's NSSDC Master Catalog

Two Line Element Set (TLE):
1 23027U 94016A   17015.11114936 -.00000074  00000-0  00000+0 0  9995
2 23027  54.7267  41.4079 0115278  17.4490  88.7311  2.00564954167446
Source of the keplerian elements: AFSPC